Location: Mountain Grove
(34.0887°N, 86.6172°W)
Time: 14:44:47
(UTC+00:00)

Cosmos 1538 Rocket - Pass Details

Date: 14 July 2020
Orbit: 753 x 791 km, 74.0° (Epoch: 13 August)

Event Time Altitude Azimuth Distance (km) Brightness Sun altitude
Rises 01:48:15 0° 199° (SSW) 3,269 7.1 -9.6°
Reaches altitude 10° 01:50:39 10° 201° (SSW) 2,341 6.4 -10.0°
Maximum altitude 01:55:59 77° 287° (WNW) 807 4.3 -10.9°
Drops below altitude 10° 02:01:18 10° 14° (NNE) 2,335 6.8 -11.8°
Sets 02:03:41 0° 16° (NNE) 3,260 7.6 -12.2°
